Terug naar catalogus

COSMOS 249

ActiefMilitairUNKNOWN
NORAD 3504·PAYLOAD·🇷🇺 Russia

Gelanceerd Oct 20, 1968 vanaf Baikonur Cosmodrome

Loading…

Volgende Passages (komende 24 uur)

TLE

VersSource: Space-Track

Epoch: Sep 14, 2026, 10:16 UTC

1 03504U 68091A   26257.42792906 -.00000070  00000-0  15529-4 0  9991
2 03504  62.3420  48.1157 1015350  39.5500 327.5275 12.97206844732066

Volg COSMOS 249 in realtime met AllMySat

Download on the App Store